Back to catalog

STARLINK-31929

AliveCommunicationsVLEO
NORAD 59836·PAYLOAD·🇺🇸 United States

Launched May 23, 2024 from Cape Canaveral Space Force Station

Loading…

Next Passes (next 24 hours)

TLE

FreshSource: CelesTrak SupGP

Epoch: Sep 14, 2026, 22:46 UTC

1 59836C 24097B   26257.94909722  .00024105  00000+0  87313-3 0  2570
2 59836  43.0005 285.8290 0001307 272.3924 245.2539 15.27564546    15

Track STARLINK-31929 in real time with AllMySat

Download on the App Store